{"data":{"norad_id":62287,"epoch":"2026-09-21T05:00:28.042560Z","epoch_age_seconds":116374,"freshness":"FRESH","line1":"1 62287U 24237W   26264.20865790  .00015775  00000+0  58128-3 0  9991","line2":"2 62287  43.0011 192.2017 0001737 272.7036  87.3617 15.27595271101001","mean_motion":15.27595271,"eccentricity":0.0001737,"inclination_deg":43.0011,"raan_deg":192.2017,"arg_perigee_deg":272.7036,"mean_anomaly_deg":87.3617,"bstar":0.00058128,"rev_number":10100,"period_min":94.265806351793,"perigee_km":481.81158947068,"apogee_km":484.19514963506,"semimajor_km":6861.1403695529,"source":"CELESTRAK","updated_at":"2026-09-22T09:00:49.569989Z"}}